GW3984 Weather Reports


Display with metric or nautical units.
time (UTC)temp
F
wind
direction
speed
MPH
gust
MPH
rain 1hr
in
rain 24hr
in
rain mn
in
humidity
%
barometer
mb
20260901070111 80 167 0.0 4.0 0.00 0.00 0.00 76 1016.3
20260901070027 80 98 1.0 6.0 0.00 0.00 0.00 76 1017.2
20260901065056 80 117 0.0 4.0 0.00 0.00 0.00 76 1016.2
20260901064534 80 163 2.0 6.0 0.00 0.00 0.00 75 1017.2
20260901064103 80 153 0.0 1.0 0.00 0.00 0.00 76 1016.3
20260901063019 80 151 0.0 2.0 0.00 0.00 0.00 75 1017.2
20260901061533 80 123 0.0 3.0 0.00 0.00 0.00 73 1017.2
20260901060828 81 123 0.0 2.0 0.00 0.00 0.00 73 1016.2
20260901060042 81 141 1.0 6.0 0.00 0.00 0.00 72 1016.8
20260901054706 82 132 0.0 4.0 0.00 0.00 0.00 71 1015.9
20260901054536 81 105 0.0 6.0 0.00 0.00 0.00 71 1016.7
20260901053646 82 250 0.0 5.0 0.00 0.00 0.00 70 1015.9
20260901053030 82 145 1.0 4.0 0.00 0.00 0.00 68 1016.7
20260901052613 82 137 0.0 5.0 0.00 0.00 0.00 69 1015.8
20260901051611 83 148 0.0 5.0 0.00 0.00 0.00 69 1015.9
20260901051535 82 129 2.0 7.0 0.00 0.00 0.00 69 1016.6
20260901050031 82 131 1.0 6.0 0.00 0.00 0.00 68 1016.6
20260901045443 83 116 0.0 5.0 0.00 0.00 0.00 69 1015.6
20260901044526 83 128 1.0 6.0 0.00 0.00 0.00 68 1016.4
20260901044415 83 144 0.0 4.0 0.00 0.00 0.00 68 1015.7
20260901043026 84 141 1.0 6.0 0.00 0.00 0.00 66 1016.4
20260901041523 84 165 1.0 6.0 0.00 0.00 0.00 65 1016.3
20260901041144 85 119 1.0 8.0 0.00 0.00 0.00 65 1015.6
20260901040036 85 113 3.0 10.0 0.00 0.00 0.00 63 1016.3
20260901035105 86 89 1.0 5.0 0.00 0.00 0.00 62 1015.4
20260901034534 85 117 2.0 7.0 0.00 0.00 0.00 61 1016.0
20260901034129 86 122 1.0 6.0 0.00 0.00 0.00 61 1015.3
20260901033102 87 104 1.0 6.0 0.00 0.00 0.00 60 1015.2
20260901033032 86 159 1.0 8.0 0.00 0.00 0.00 59 1016.0
20260901032032 87 120 1.0 5.0 0.00 0.00 0.00 59 1015.1
20260901031510 86 110 1.0 6.0 0.00 0.00 0.00 58 1015.8
20260901030007 87 87 1.0 8.0 0.00 0.00 0.00 58 1015.5
20260901024729 88 161 1.0 6.0 0.00 0.00 0.00 58 1014.6
20260901024512 87 128 2.0 8.0 0.00 0.00 0.00 57 1015.3
20260901023006 87 159 0.0 7.0 0.00 0.00 0.00 58 1015.1
20260901022553 88 105 1.0 6.0 0.00 0.00 0.00 58 1014.3
20260901021554 88 92 1.0 6.0 0.00 0.00 0.00 57 1014.2
20260901021508 87 168 2.0 8.0 0.00 0.00 0.00 57 1015.0
20260901020008 88 71 1.0 4.0 0.00 0.00 0.00 56 1014.8
20260901015444 88 129 0.0 3.0 0.00 0.00 0.00 56 1014.0
20260901014507 88 109 1.0 6.0 0.00 0.00 0.00 55 1014.6
20260901014459 89 111 1.0 4.0 0.00 0.00 0.00 55 1013.9
20260901013504 89 122 0.0 6.0 0.00 0.00 0.00 53 1013.8
20260901013009 88 146 1.0 6.0 0.00 0.00 0.00 52 1014.5
20260901012500 89 94 0.0 6.0 0.00 0.00 0.00 52 1013.6
20260901011509 86 138 0.0 2.0 0.00 0.00 0.00 56 1014.3
20260901011432 87 136 0.0 1.0 0.00 0.00 0.00 57 1013.5
20260901010013 88 138 0.0 1.0 0.00 0.00 0.00 50 1014.1
20260901005318 89 136 0.0 0.0 0.00 0.00 0.00 50 1013.3
20260901004507 90 138 0.0 2.0 0.00 0.00 0.00 47 1014.1
20260901004338 90 141 0.0 4.0 0.00 0.00 0.00 48 1013.4
20260901003343 91 126 0.0 3.0 0.00 0.00 0.00 47 1013.3
20260901003008 91 162 0.0 4.0 0.00 0.00 0.00 46 1014.1
20260901002348 91 113 0.0 1.0 0.00 0.00 0.00 48 1013.3
20260901001515 92 126 1.0 6.0 0.00 0.00 0.00 45 1014.0
20260901001359 92 137 0.0 4.0 0.00 0.00 0.00 46 1013.1
20260901000420 93 117 1.0 6.0 0.00 0.00 0.00 45 1013.1
20260901000014 92 92 2.0 8.0 0.00 0.00 0.00 44 1013.9
20260831235434 93 129 0.0 6.0 0.00 0.00 0.00 44 1013.0
20260831234511 93 132 1.0 7.0 0.00 0.00 0.00 44 1013.8
20260831234424 93 138 1.0 4.0 0.00 0.00 0.00 44 1013.0
20260831233438 93 153 0.0 4.0 0.00 0.00 0.00 45 1013.0
20260831233009 93 134 0.0 5.0 0.00 0.00 0.00 44 1013.8
20260831232451 93 64 0.0 4.0 0.00 0.00 0.00 45 1013.0
20260831231513 93 118 1.0 4.0 0.00 0.00 0.00 45 1013.9
20260831231438 94 108 0.0 3.0 0.00 0.00 0.00 45 1013.0
20260831230426 94 125 0.0 6.0 0.00 0.00 0.00 45 1013.1
20260831230014 93 119 0.0 8.0 0.00 0.00 0.00 44 1014.0
20260831225421 94 168 1.0 6.0 0.00 0.00 0.00 44 1013.1
20260831224508 93 114 0.0 7.0 0.00 0.00 0.00 44 1014.1
20260831224424 94 63 1.0 6.0 0.00 0.00 0.00 43 1013.3
20260831223439 94 131 1.0 6.0 0.00 0.00 0.00 44 1013.3
20260831223018 94 132 3.0 8.0 0.00 0.00 0.00 43 1014.1
20260831222407 94 172 1.0 5.0 0.00 0.00 0.00 44 1013.4
20260831221523 93 81 1.0 4.0 0.00 0.00 0.00 44 1014.2
20260831221354 94 170 0.0 5.0 0.00 0.00 0.00 44 1013.4
20260831220417 94 26 1.0 6.0 0.00 0.00 0.00 44 1013.6
20260831220015 94 140 2.0 7.0 0.00 0.00 0.00 45 1014.4
20260831215346 93 224 1.0 8.0 0.00 0.00 0.00 47 1013.7
20260831214517 94 156 2.0 10.0 0.00 0.00 0.00 46 1014.6
20260831214348 94 110 2.0 8.0 0.00 0.00 0.00 45 1013.8
20260831213317 95 115 0.0 5.0 0.00 0.00 0.00 46 1013.9
20260831213016 94 130 1.0 5.0 0.00 0.00 0.00 44 1014.7
20260831212252 95 283 1.0 9.0 0.00 0.00 0.00 46 1013.9
20260831211519 94 117 2.0 11.0 0.00 0.00 0.00 45 1014.9
20260831211310 95 148 2.0 9.0 0.00 0.00 0.00 44 1014.1
20260831210300 95 56 1.0 6.0 0.00 0.00 0.00 47 1014.2
20260831210014 94 134 0.0 8.0 0.00 0.00 0.00 48 1015.0
20260831205321 95 75 1.0 6.0 0.00 0.00 0.00 44 1014.4
20260831204510 94 84 2.0 7.0 0.00 0.00 0.00 45 1015.4
20260831204335 95 109 0.0 7.0 0.00 0.00 0.00 46 1014.5
20260831203328 94 118 1.0 7.0 0.00 0.00 0.00 44 1014.8
20260831203006 94 117 3.0 9.0 0.00 0.00 0.00 44 1015.8
20260831202345 95 39 1.0 6.0 0.00 0.00 0.00 45 1014.9
20260831201536 93 92 2.0 8.0 0.00 0.00 0.00 45 1015.9
20260831200246 94 212 2.0 6.0 0.00 0.00 0.00 49 1015.3
20260831200028 94 151 3.0 7.0 0.00 0.00 0.00 47 1016.2
20260831195308 93 117 1.0 6.0 0.00 0.00 0.00 47 1015.5
20260831194538 93 121 1.0 5.0 0.00 0.00 0.00 46 1016.5
20260831194329 94 207 1.0 5.0 0.00 0.00 0.00 47 1015.6
20260831193256 93 143 1.0 6.0 0.00 0.00 0.00 50 1015.9
20260831193019 92 157 1.0 8.0 0.00 0.00 0.00 48 1016.8
20260831192224 93 122 1.0 6.0 0.00 0.00 0.00 49 1015.9
20260831191522 93 106 3.0 8.0 0.00 0.00 0.00 49 1016.8
20260831191249 92 141 1.0 6.0 0.00 0.00 0.00 51 1016.0
20260831190228 92 200 0.0 5.0 0.00 0.00 0.00 50 1016.2
20260831190018 92 139 1.0 7.0 0.00 0.00 0.00 50 1017.0
20260831185237 92 56 1.0 6.0 0.00 0.00 0.00 51 1016.3
20260831184514 92 140 2.0 9.0 0.00 0.00 0.00 50 1017.2
20260831184245 93 78 2.0 6.0 0.00 0.00 0.00 52 1016.4
20260831183230 92 127 1.0 5.0 0.00 0.00 0.00 55 1016.5
20260831183009 92 136 2.0 7.0 0.00 0.00 0.00 53 1017.3
20260831182231 92 116 0.0 6.0 0.00 0.00 0.00 55 1016.6
20260831181526 92 39 2.0 7.0 0.00 0.00 0.00 51 1017.4
20260831180004 92 126 1.0 8.0 0.00 0.00 0.00 55 1017.6
20260831175058 92 103 0.0 3.0 0.00 0.00 0.00 57 1016.8
20260831174533 89 129 0.0 3.0 0.00 0.00 0.00 57 1017.7
20260831174025 91 163 0.0 4.0 0.00 0.00 0.00 57 1017.0
20260831173025 90 167 3.0 7.0 0.00 0.00 0.00 54 1017.7
20260831172951 91 94 1.0 5.0 0.00 0.00 0.00 55 1016.9
20260831171935 92 157 0.0 5.0 0.00 0.00 0.00 56 1017.1
20260831171538 91 129 2.0 7.0 0.00 0.00 0.00 55 1017.7
20260831170917 89 123 1.0 5.0 0.00 0.00 0.00 58 1017.1
20260831170055 90 146 1.0 6.0 0.00 0.00 0.00 55 1017.9
20260831165942 91 181 1.0 4.0 0.00 0.00 0.00 55 1017.2
20260831164916 90 63 0.0 6.0 0.00 0.00 0.00 58 1017.2
20260831164515 90 186 1.0 4.0 0.00 0.00 0.00 57 1018.1
20260831163907 89 135 1.0 6.0 0.00 0.00 0.00 61 1017.3
20260831163030 90 325 0.0 6.0 0.00 0.00 0.00 62 1018.1
20260831162920 90 333 0.0 4.0 0.00 0.00 0.00 63 1017.2
20260831161922 88 89 1.0 4.0 0.00 0.00 0.00 63 1017.3
20260831161524 88 175 2.0 5.0 0.00 0.00 0.00 61 1018.1
20260831160915 88 108 0.0 5.0 0.00 0.00 0.00 64 1017.3
20260831160014 88 173 3.0 7.0 0.00 0.00 0.00 63 1018.1
20260831155854 89 96 0.0 5.0 0.00 0.00 0.00 61 1017.2
20260831154853 88 92 1.0 4.0 0.00 0.00 0.00 68 1017.2
20260831154559 86 161 2.0 6.0 0.00 0.00 0.00 68 1017.9
20260831153910 87 205 0.0 9.0 0.00 0.00 0.00 67 1017.1
20260831153027 85 286 1.0 12.0 0.00 0.00 0.00 70 1017.9
20260831152847 86 16 1.0 9.0 0.00 0.00 0.00 70 1017.1
20260831151834 86 141 0.0 2.0 0.00 0.00 0.00 72 1017.0
20260831151528 85 308 1.0 3.0 0.00 0.00 0.00 73 1017.8
20260831150845 85 177 1.0 8.0 0.00 0.00 0.00 74 1017.0
20260831150025 84 200 2.0 10.0 0.00 0.00 0.00 74 1017.8
20260831145844 85 135 0.0 8.0 0.00 0.00 0.00 73 1017.0
20260831144528 85 159 0.0 6.0 0.00 0.00 0.00 75 1017.7
20260831143633 83 123 1.0 5.0 0.00 0.00 0.00 76 1016.9
20260831143018 82 137 1.0 7.0 0.00 0.00 0.00 78 1017.6
20260831142633 83 98 0.0 5.0 0.00 0.00 0.00 77 1016.8
20260831141629 82 159 0.0 4.0 0.00 0.00 0.00 80 1016.9
20260831141515 82 109 1.0 6.0 0.00 0.00 0.00 80 1017.6
20260831140631 82 166 0.0 4.0 0.00 0.00 0.00 82 1016.8
20260831140015 81 132 0.0 6.0 0.00 0.00 0.00 83 1017.5
20260831135559 81 180 0.0 3.0 0.00 0.00 0.00 85 1016.8
20260831134559 80 135 0.0 0.0 0.00 0.00 0.00 86 1016.7
20260831134509 79 317 0.0 2.0 0.00 0.00 0.00 86 1017.5
20260831133621 79 125 0.0 3.0 0.00 0.00 0.00 87 1016.7
20260831133032 79 144 1.0 4.0 0.00 0.00 0.00 86 1017.5
20260831132636 80 88 0.0 0.0 0.00 0.00 0.00 88 1016.6
20260831131532 78 155 0.0 3.0 0.00 0.00 0.00 88 1017.4
20260831130030 77 117 0.0 2.0 0.00 0.00 0.00 89 1017.3
20260831124532 77 134 0.0 3.0 0.00 0.00 0.00 89 1017.3
20260831124245 78 131 0.0 0.0 0.00 0.00 0.00 90 1016.4
20260831123224 77 65 0.0 1.0 0.00 0.00 0.00 90 1016.2
20260831123025 77 69 0.0 2.0 0.00 0.00 0.00 89 1017.0
20260831122210 77 111 0.0 1.0 0.00 0.00 0.00 90 1016.0
20260831121523 77 110 0.0 0.0 0.00 0.00 0.00 89 1016.8
20260831121159 77 107 0.0 0.0 0.00 0.00 0.00 89 1016.0
20260831120136 77 175 0.0 0.0 0.00 0.00 0.00 89 1016.0
20260831120028 77 118 0.0 0.0 0.00 0.00 0.00 89 1016.8
20260831115130 77 120 0.0 0.0 0.00 0.00 0.00 89 1015.8
20260831114514 77 119 0.0 0.0 0.00 0.00 0.00 89 1016.6
20260831114152 77 126 0.0 0.0 0.00 0.00 0.00 89 1015.8
20260831113032 77 106 0.0 0.0 0.00 0.00 0.00 88 1016.7
20260831112104 78 117 0.0 0.0 0.00 0.00 0.00 89 1016.0
20260831111534 77 119 0.0 2.0 0.00 0.00 0.00 88 1016.8
20260831111102 78 47 0.0 0.0 0.00 0.00 0.00 88 1015.9
20260831110031 77 161 1.0 4.0 0.00 0.00 0.00 87 1016.7
20260831104929 78 173 0.0 1.0 0.00 0.00 0.00 88 1015.9
20260831104533 78 118 1.0 4.0 0.00 0.00 0.00 87 1016.9
20260831103930 78 170 0.0 4.0 0.00 0.00 0.00 87 1016.0
20260831103048 78 201 1.0 6.0 0.00 0.00 0.00 87 1016.8
20260831102943 78 180 0.0 4.0 0.00 0.00 0.00 87 1015.9
20260831101915 78 172 0.0 4.0 0.00 0.00 0.00 87 1016.0
20260831101527 78 264 0.0 4.0 0.00 0.00 0.00 87 1016.8
20260831100916 78 115 0.0 3.0 0.00 0.00 0.00 87 1016.0
20260831100035 78 159 0.0 2.0 0.00 0.00 0.00 86 1017.0
20260831095851 78 141 0.0 1.0 0.00 0.00 0.00 87 1016.0
20260831094823 78 179 0.0 4.0 0.00 0.00 0.00 87 1016.0
20260831094527 78 101 1.0 4.0 0.00 0.00 0.00 86 1016.8
20260831093828 78 129 0.0 4.0 0.00 0.00 0.00 87 1015.9
20260831093033 78 200 0.0 2.0 0.00 0.00 0.00 87 1016.8
20260831092807 78 118 0.0 0.0 0.00 0.00 0.00 87 1015.9
20260831091740 78 124 0.0 3.0 0.00 0.00 0.00 87 1015.9
20260831091512 78 128 0.0 2.0 0.00 0.00 0.00 87 1016.9
20260831090714 78 149 0.0 1.0 0.00 0.00 0.00 87 1015.9
20260831090011 78 179 0.0 3.0 0.00 0.00 0.00 87 1016.8
20260831085709 78 108 0.0 2.0 0.00 0.00 0.00 87 1016.0
20260831084508 78 123 0.0 4.0 0.00 0.00 0.00 86 1016.8
20260831083620 78 158 0.0 0.0 0.00 0.00 0.00 87 1016.0
20260831083017 78 126 0.0 2.0 0.00 0.00 0.00 86 1017.0
20260831082615 78 94 0.0 1.0 0.00 0.00 0.00 87 1016.1
20260831081530 77 114 1.0 3.0 0.00 0.00 0.00 86 1017.0
20260831080047 77 189 0.0 1.0 0.00 0.00 0.00 85 1017.1
20260831075242 78 143 0.0 0.0 0.00 0.00 0.00 85 1016.1
20260831074524 77 141 0.0 2.0 0.00 0.00 0.00 84 1017.0
20260831074250 78 154 0.0 0.0 0.00 0.00 0.00 85 1016.1
20260831073240 78 133 0.0 1.0 0.00 0.00 0.00 84 1016.0
20260831073031 78 138 0.0 2.0 0.00 0.00 0.00 83 1016.9
20260831072252 78 149 0.0 2.0 0.00 0.00 0.00 83 1016.0
20260831071519 78 126 0.0 3.0 0.00 0.00 0.00 82 1017.0